Station 42026 - Search and Rescue Data

C22 - Loop Current Pressure Point Buoy, 70m Isobath
25.171 N 83.475 W (25°10'16" N 83°28'30" W)

The highly endangered Rice's whale, a newly identified species, inhabit the northeastern Gulf of Mexico year-round along the continental shelf-break between 100m and 400m depth. Vessels can kill or injure whales - please use slow speeds and be prepared to avoid surfacing whales. To report sightings call 1-877-WHALE-HELP.

Average surface winds - six hour block.

Date (UTC) Average
Wind Dir
(True)
Average
Wind Spd
(Knots)
Wind
Obs
Average
Seas
(Feet)
Wave
Obs
Air Temp.
(Degrees F.)
Air Temp.
Obs
Water Temp.
(Degrees F.)
Water Temp.
Obs
2024-05-29 0000Z35838-0878888
2024-05-28 1800Z321012-086128612
2024-05-28 1200Z185512-084128512
2024-05-28 0600Z146712-084128512
2024-05-28 0000Z122512-085128612
2024-05-27 1800Z138612-085128512
2024-05-27 1200Z1531012-084128412
2024-05-27 0600Z124812-084128412
2024-05-27 0000Z118512-084128512
2024-05-26 1800Z148712-084128512
2024-05-26 1200Z135512-083128412
2024-05-26 0600Z62312-083128412
2024-05-26 0000Z104112-085128612
2024-05-25 1800Z130212-084128612
2024-05-25 1200Z70512-083128412
2024-05-25 0600Z23312-083128412
2024-05-25 0000Z143412-084128412
2024-05-24 1800Z123412-083128512
2024-05-24 1200Z109412-081128412
2024-05-24 0600Z98412-083128412
2024-05-24 0000Z94612-084128412
2024-05-23 1800Z100612-084128412
2024-05-23 1200Z89812-083128412
2024-05-23 0600Z93712-083128412
2024-05-23 0000Z84512-084128512
2024-05-22 1800Z93612-083128412
2024-05-22 1200Z62812-081128412
2024-05-22 0600Z42712-082128412
2024-05-22 0000Z50612-083128412
2024-05-21 1800Z105712-083128412
2024-05-21 1200Z70712-081128312
2024-05-21 0600Z50312-082128412
2024-05-21 0000Z293312-082128512
2024-05-20 1800Z106312-084128412
2024-05-20 1200Z88412-083128212
2024-05-20 0600Z44512-082128312
2024-05-20 0000Z270512-082128312
2024-05-19 1800Z281112-085128412
2024-05-19 1200Z138412-083128212
2024-05-19 0600Z111712-083128312
2024-05-19 0000Z36212-085128412
2024-05-18 1800Z177912-084128312
2024-05-18 1200Z1611112-083128212
2024-05-18 0600Z1441112-083128212
2024-05-18 0000Z130912-084128412
2024-05-17 1800Z163912-083128312
2024-05-17 1200Z1661012-082128212
2024-05-17 0600Z161812-082128212
2024-05-17 0000Z332210-083108310
2024-05-16 1800Z242912-084128312
2024-05-16 1200Z204912-083128212
2024-05-16 0600Z1891010-082108210
2024-05-16 0000Z17836-0846836
2024-05-15 1800Z217611-084118311
2024-05-15 1200Z1911112-082128212
2024-05-15 0600Z1551112-083128312
2024-05-15 0000Z132612-084128412
2024-05-14 1800Z168412-084128312
2024-05-14 1200Z1711212-082128212
2024-05-14 0600Z1411412-082128212
2024-05-14 0000Z132812-083128212
2024-05-13 1800Z1581112-082128212
2024-05-13 1200Z1501112-081128112
2024-05-13 0600Z126812-081128212
2024-05-13 0000Z1001012-080128212
2024-05-12 1800Z881012-081128212
2024-05-12 1200Z51512-081128112
2024-05-12 0600Z354512-081128212
2024-05-12 0000Z285412-083128212
2024-05-11 1800Z249512-082128212
2024-05-11 1200Z223412-081128112
2024-05-11 0600Z191412-080128212
2024-05-11 0000Z84212-082128312
2024-05-10 1800Z182512-081128112
2024-05-10 1200Z1711112-080128012
2024-05-10 0600Z1331012-080128012
2024-05-10 0000Z145712-080128112
2024-05-09 1800Z1631012-081128012
2024-05-09 1200Z1521310-080108010
2024-05-08 1200Z1481212-080128012
2024-05-08 0600Z1321212-080128012
2024-05-08 0000Z96912-080128012
2024-05-07 1800Z1161012-080128012
2024-05-07 1200Z1241212-079127912
2024-05-07 0600Z1201312-079127912
2024-05-07 0000Z1031012-079128012
2024-05-06 1800Z1061212-079127912
2024-05-06 1200Z1121212-079127912
2024-05-06 0600Z1171412-079127912
2024-05-06 0000Z981012-079127912
2024-05-05 1800Z1141114-080148014
2024-05-05 1200Z1021312-079127912
2024-05-05 0600Z1011212-078127912
2024-05-05 0000Z89912-079127912
2024-05-04 1800Z901212-079127912
2024-05-04 1200Z1081212-078127812
2024-05-04 0600Z1061112-078127812
2024-05-04 0000Z88912-078127912
2024-05-03 1800Z891212-078127812
2024-05-03 1200Z1011212-078127812
2024-05-03 0600Z1101212-078127812
2024-05-03 0000Z92912-078127812
2024-05-02 1800Z1031012-078127812
2024-05-02 1200Z951012-077127812
2024-05-02 0600Z65912-077127812
2024-05-02 0000Z47712-077127912
2024-05-01 1800Z66712-077127812
2024-05-01 1200Z77812-077127712
2024-05-01 0600Z96712-077127712
2024-05-01 0000Z70811-077117811
2024-04-30 1800Z100812-077127712
2024-04-30 1200Z1141312-077127712
2024-04-30 0600Z1151312-077127712
2024-04-30 0000Z1071312-077127712
2024-04-29 1800Z1131612-077127712
2024-04-29 1200Z1131812-076127612
2024-04-29 0600Z1081812-076127712
2024-04-29 0000Z1081712-077127712
2024-04-28 1800Z1121912-077127612
2024-04-28 1200Z1122012-077127612
2024-04-28 0600Z1102112-077127712
2024-04-28 0000Z1032012-077127712
2024-04-27 1800Z931912-077127612
2024-04-27 1200Z971812-076127612
2024-04-27 0600Z1051912-076127712
2024-04-27 0000Z1031412-077127712
2024-04-26 1800Z991312-076127712
2024-04-26 1200Z941212-076127612
2024-04-26 0600Z91912-076127712
2024-04-26 0000Z107712-076127712
2024-04-25 1800Z95812-075127712
2024-04-25 1200Z60912-075127612
2024-04-25 0600Z71712-076127712
2024-04-25 0000Z981110-076107710
2024-04-24 1800Z991312-076127712
2024-04-24 1200Z951212-075127612
2024-04-24 0600Z511012-075127612
2024-04-24 0000Z531112-074127712
2024-04-23 1800Z651412-073127712
2024-04-23 1200Z781612-072127612
2024-04-23 0600Z301512-072127712
2024-04-23 0000Z41412-073127712
2024-04-22 1800Z61512-075127712
2024-04-22 1200Z314512-077127812
2024-04-22 0600Z207512-077127812
2024-04-22 0000Z141412-078127912
2024-04-21 1800Z207312-078127812
2024-04-21 1200Z1561112-077127712
2024-04-21 0600Z134812-076127712
2024-04-21 0000Z101812-077127812
2024-04-20 1800Z108712-077127712
2024-04-20 1200Z1211012-076127612
2024-04-20 0600Z91912-076127712
2024-04-20 0000Z62812-076127712
2024-04-19 1800Z91810-076107710
2024-04-19 0600Z8476-0756766
2024-04-19 0000Z79812-076127612
2024-04-18 1800Z831012-076127612
2024-04-18 1200Z1241212-075127612
2024-04-18 0600Z1111212-076127612
2024-04-18 0000Z1031112-076127612
2024-04-17 1800Z1101412-076127612
2024-04-17 1200Z1051512-075127612
2024-04-17 0600Z1111612-076127612
2024-04-17 0000Z1091412-076127612
2024-04-16 1800Z1081412-075127612
2024-04-16 1200Z1011412-074127612
2024-04-16 0600Z911012-074127612
2024-04-16 0000Z711012-074127612
2024-04-15 1800Z881012-074127612
2024-04-15 1200Z981212-074127612
2024-04-15 0600Z1121212-074127612
2024-04-15 0000Z1121012-074127612
2024-04-14 1800Z951412-074127612
2024-04-14 1200Z761012-073127612
2024-04-14 0600Z481012-073127612
2024-04-14 0000Z5896-0736766

The six-hour averages are calculated as follows:

  • The 0000Z average uses data from 2100Z to 0259Z.
  • The 0600Z average uses data from 0300Z to 0859Z.
  • The 1200Z average uses data from 0900Z to 1459Z.
  • The 1800Z average uses data from 1500Z to 2059Z.

Display 42026 station page